| time (UTC) | temp F | wind direction | speed knots | gust knots | rain 1hr in | rain 24hr in | rain mn in | humidity % | barometer mb |
| 20260507122509 | 47 | 276 | 4.3 | 7.0 | 0.00 | 0.00 | 0.00 | 61 | 1010.9 |
| 20260507122013 | 47 | 234 | 0.9 | 5.2 | 0.00 | 0.00 | 0.00 | 63 | 1010.8 |
| 20260507121527 | 47 | 266 | 1.7 | 5.2 | 0.00 | 0.00 | 0.00 | 63 | 1010.7 |
| 20260507121007 | 47 | 243 | 1.7 | 6.1 | 0.00 | 0.00 | 0.00 | 63 | 1010.7 |
| 20260507120508 | 47 | 252 | 1.7 | 7.0 | 0.00 | 0.00 | 0.00 | 63 | 1010.6 |
| 20260507120003 | 48 | 293 | 3.5 | 7.0 | 0.00 | 0.00 | 0.00 | 63 | 1010.6 |
| 20260507115503 | 47 | 269 | 3.5 | 7.0 | 0.00 | 0.00 | 0.00 | 64 | 1010.4 |
| 20260507115001 | 47 | 259 | 2.6 | 7.8 | 0.00 | 0.00 | 0.00 | 65 | 1010.4 |
| 20260507114504 | 47 | 270 | 2.6 | 7.8 | 0.00 | 0.00 | 0.00 | 66 | 1010.5 |
| 20260507114004 | 46 | 264 | 3.5 | 7.0 | 0.00 | 0.00 | 0.00 | 68 | 1010.6 |
| 20260507113503 | 45 | 258 | 2.6 | 4.3 | 0.00 | 0.00 | 0.00 | 71 | 1010.5 |
| 20260507113004 | 45 | 258 | 0.9 | 3.5 | 0.00 | 0.00 | 0.00 | 73 | 1010.5 |
| 20260507112503 | 44 | 250 | 0.9 | 1.7 | 0.00 | 0.00 | 0.00 | 75 | 1010.6 |
| 20260507112003 | 44 | 204 | 0.0 | 0.9 | 0.00 | 0.00 | 0.00 | 75 | 1010.5 |
| 20260507111511 | 44 | 203 | 0.0 | 0.9 | 0.00 | 0.00 | 0.00 | 75 | 1010.4 |
| 20260507111003 | 44 | 199 | 0.0 | 0.9 | 0.00 | 0.00 | 0.00 | 75 | 1010.4 |
| 20260507110503 | 44 | 194 | 0.0 | 0.0 | 0.00 | 0.00 | 0.00 | 75 | 1010.4 |
| 20260507110011 | 44 | 194 | 0.0 | 0.9 | 0.00 | 0.00 | 0.00 | 73 | 1010.4 |
| 20260507105503 | 45 | 194 | 0.0 | 0.9 | 0.00 | 0.00 | 0.00 | 73 | 1010.4 |
| 20260507105003 | 45 | 203 | 0.0 | 0.9 | 0.00 | 0.00 | 0.00 | 73 | 1010.4 |
| 20260507104503 | 45 | 203 | 0.0 | 0.9 | 0.00 | 0.00 | 0.00 | 72 | 1010.3 |
| 20260507104003 | 45 | 244 | 0.0 | 0.9 | 0.00 | 0.00 | 0.00 | 72 | 1010.4 |
| 20260507103503 | 45 | 249 | 0.9 | 0.9 | 0.00 | 0.00 | 0.00 | 73 | 1010.4 |
| 20260507103005 | 45 | 247 | 0.0 | 0.9 | 0.00 | 0.00 | 0.00 | 72 | 1010.3 |
| 20260507102504 | 45 | 247 | 0.0 | 0.9 | 0.00 | 0.00 | 0.00 | 72 | 1010.3 |
| 20260507102006 | 45 | 246 | 0.0 | 0.9 | 0.00 | 0.00 | 0.00 | 72 | 1010.3 |
| 20260507101504 | 45 | 248 | 0.0 | 0.9 | 0.00 | 0.00 | 0.00 | 73 | 1010.4 |
| 20260507101002 | 45 | 248 | 0.0 | 0.9 | 0.00 | 0.00 | 0.00 | 73 | 1010.3 |
| 20260507100505 | 45 | 248 | 0.0 | 0.9 | 0.00 | 0.00 | 0.00 | 72 | 1010.3 |
| 20260507100011 | 45 | 217 | 0.0 | 0.9 | 0.00 | 0.00 | 0.00 | 73 | 1010.3 |
| 20260507095503 | 45 | 217 | 0.0 | 0.9 | 0.00 | 0.00 | 0.00 | 72 | 1010.3 |
| 20260507095004 | 46 | 235 | 0.0 | 0.9 | 0.00 | 0.00 | 0.00 | 72 | 1010.3 |
| 20260507094515 | 46 | 235 | 0.0 | 0.9 | 0.00 | 0.00 | 0.00 | 72 | 1010.3 |
| 20260507094004 | 46 | 235 | 0.9 | 0.9 | 0.00 | 0.00 | 0.00 | 73 | 1010.2 |
| 20260507093503 | 46 | 160 | 0.0 | 0.0 | 0.00 | 0.00 | 0.00 | 72 | 1010.0 |
| 20260507093017 | 46 | 160 | 0.0 | 0.0 | 0.00 | 0.00 | 0.00 | 73 | 1010.0 |
| 20260507092502 | 46 | 115 | 0.0 | 0.0 | 0.00 | 0.00 | 0.00 | 72 | 1009.9 |
| 20260507092001 | 46 | 116 | 0.0 | 0.0 | 0.00 | 0.00 | 0.00 | 72 | 1009.9 |
| 20260507091504 | 47 | 115 | 0.0 | 0.0 | 0.00 | 0.00 | 0.00 | 71 | 1009.9 |
| 20260507091003 | 47 | 116 | 0.0 | 0.9 | 0.00 | 0.00 | 0.00 | 70 | 1009.9 |
| 20260507090503 | 47 | 90 | 0.0 | 0.9 | 0.00 | 0.00 | 0.00 | 69 | 1009.9 |
| 20260507090006 | 48 | 90 | 0.0 | 0.9 | 0.00 | 0.00 | 0.00 | 68 | 1009.9 |
| 20260507085503 | 48 | 90 | 0.0 | 0.9 | 0.00 | 0.00 | 0.00 | 68 | 1009.9 |
| 20260507085007 | 48 | 56 | 0.0 | 1.7 | 0.00 | 0.00 | 0.00 | 69 | 1009.9 |
| 20260507084529 | 48 | 56 | 0.0 | 1.7 | 0.00 | 0.00 | 0.00 | 69 | 1009.9 |
| 20260507084003 | 48 | 70 | 0.0 | 0.9 | 0.00 | 0.00 | 0.00 | 69 | 1009.9 |
| 20260507083509 | 48 | 304 | 0.0 | 0.9 | 0.00 | 0.00 | 0.00 | 69 | 1009.9 |
| 20260507083014 | 48 | 303 | 0.0 | 1.7 | 0.00 | 0.00 | 0.00 | 69 | 1009.9 |
| 20260507082504 | 48 | 136 | 0.0 | 1.7 | 0.00 | 0.00 | 0.00 | 70 | 1009.9 |
| 20260507082003 | 48 | 226 | 0.0 | 0.0 | 0.00 | 0.00 | 0.00 | 69 | 1010.0 |
| 20260507081519 | 49 | 58 | 0.0 | 0.0 | 0.00 | 0.00 | 0.00 | 68 | 1009.9 |
| 20260507081007 | 49 | 58 | 0.0 | 0.9 | 0.00 | 0.00 | 0.00 | 68 | 1009.9 |
| 20260507080502 | 49 | 58 | 0.0 | 2.6 | 0.00 | 0.00 | 0.00 | 68 | 1009.8 |
| 20260507080005 | 50 | 352 | 0.0 | 2.6 | 0.00 | 0.00 | 0.00 | 67 | 1009.9 |
| 20260507075503 | 50 | 32 | 0.0 | 5.2 | 0.00 | 0.00 | 0.00 | 67 | 1009.9 |
| 20260507075005 | 50 | 245 | 0.0 | 6.1 | 0.00 | 0.00 | 0.00 | 67 | 1009.9 |
| 20260507074508 | 50 | 262 | 2.6 | 6.1 | 0.00 | 0.00 | 0.00 | 67 | 1010.0 |
| 20260507074003 | 50 | 243 | 1.7 | 4.3 | 0.00 | 0.00 | 0.00 | 67 | 1009.9 |
| 20260507073508 | 50 | 291 | 1.7 | 4.3 | 0.00 | 0.00 | 0.00 | 67 | 1009.9 |
| 20260507073009 | 51 | 237 | 0.9 | 4.3 | 0.00 | 0.00 | 0.00 | 66 | 1009.9 |
| 20260507072506 | 51 | 274 | 1.7 | 3.5 | 0.00 | 0.00 | 0.00 | 66 | 1009.8 |
| 20260507072006 | 51 | 293 | 0.9 | 3.5 | 0.00 | 0.00 | 0.00 | 65 | 1009.8 |
| 20260507071521 | 51 | 219 | 0.0 | 2.6 | 0.00 | 0.00 | 0.00 | 65 | 1009.6 |
| 20260507071003 | 51 | 238 | 0.9 | 2.6 | 0.00 | 0.00 | 0.00 | 65 | 1009.6 |
| 20260507070505 | 51 | 237 | 0.0 | 1.7 | 0.00 | 0.00 | 0.00 | 64 | 1009.5 |
| 20260507070018 | 52 | 239 | 0.9 | 1.7 | 0.00 | 0.00 | 0.00 | 64 | 1009.6 |
| 20260507065505 | 52 | 218 | 0.0 | 0.9 | 0.00 | 0.00 | 0.00 | 64 | 1009.5 |
| 20260507065007 | 52 | 254 | 0.0 | 0.9 | 0.00 | 0.00 | 0.00 | 64 | 1009.5 |
| 20260507064506 | 52 | 254 | 0.0 | 2.6 | 0.00 | 0.00 | 0.00 | 64 | 1009.4 |
| 20260507064004 | 52 | 254 | 0.0 | 2.6 | 0.00 | 0.00 | 0.00 | 64 | 1009.4 |
| 20260507063503 | 51 | 221 | 0.0 | 0.9 | 0.00 | 0.00 | 0.00 | 65 | 1009.4 |
| 20260507063009 | 51 | 207 | 0.0 | 0.9 | 0.00 | 0.00 | 0.00 | 66 | 1009.4 |
| 20260507062504 | 51 | 207 | 0.0 | 0.9 | 0.00 | 0.00 | 0.00 | 65 | 1009.4 |
| 20260507062005 | 51 | 123 | 0.0 | 0.9 | 0.00 | 0.00 | 0.00 | 65 | 1009.3 |
| 20260507061512 | 51 | 123 | 0.0 | 0.9 | 0.00 | 0.00 | 0.00 | 64 | 1009.2 |
| 20260507061004 | 52 | 123 | 0.0 | 0.9 | 0.00 | 0.00 | 0.00 | 64 | 1009.3 |
| 20260507060505 | 52 | 147 | 0.0 | 0.9 | 0.00 | 0.00 | 0.00 | 63 | 1009.2 |
| 20260507060019 | 52 | 147 | 0.0 | 0.9 | 0.00 | 0.00 | 0.00 | 63 | 1009.2 |
| 20260507055505 | 53 | 146 | 0.0 | 0.9 | 0.00 | 0.00 | 0.00 | 62 | 1009.2 |
| 20260507055006 | 53 | 198 | 0.0 | 0.9 | 0.00 | 0.00 | 0.00 | 62 | 1009.3 |
| 20260507054519 | 53 | 198 | 0.0 | 0.9 | 0.00 | 0.00 | 0.00 | 61 | 1009.4 |
| 20260507054010 | 54 | 198 | 0.0 | 2.6 | 0.00 | 0.00 | 0.00 | 61 | 1009.3 |
| 20260507053508 | 54 | 197 | 0.0 | 3.5 | 0.00 | 0.00 | 0.00 | 60 | 1009.2 |
| 20260507053026 | 55 | 241 | 1.7 | 3.5 | 0.00 | 0.00 | 0.00 | 59 | 1009.2 |
| 20260507052504 | 55 | 218 | 0.9 | 4.3 | 0.00 | 0.00 | 0.00 | 58 | 1009.1 |
| 20260507052004 | 55 | 219 | 1.7 | 4.3 | 0.00 | 0.00 | 0.00 | 57 | 1009.2 |
| 20260507051510 | 55 | 217 | 0.9 | 3.5 | 0.00 | 0.00 | 0.00 | 57 | 1009.4 |
| 20260507051004 | 55 | 226 | 0.9 | 5.2 | 0.00 | 0.00 | 0.00 | 57 | 1009.6 |
| 20260507050503 | 56 | 255 | 3.5 | 5.2 | 0.00 | 0.00 | 0.00 | 57 | 1009.7 |
| 20260507050035 | 56 | 240 | 0.9 | 2.6 | 0.00 | 0.00 | 0.00 | 56 | 1009.6 |
| 20260507045504 | 56 | 252 | 0.9 | 2.6 | 0.00 | 0.00 | 0.00 | 56 | 1009.5 |
| 20260507045007 | 56 | 231 | 0.0 | 2.6 | 0.00 | 0.00 | 0.00 | 56 | 1009.4 |
| 20260507044517 | 56 | 274 | 0.9 | 4.3 | 0.00 | 0.00 | 0.00 | 56 | 1009.3 |
| 20260507044006 | 56 | 224 | 1.7 | 5.2 | 0.00 | 0.00 | 0.00 | 56 | 1009.4 |
| 20260507043506 | 56 | 281 | 2.6 | 5.2 | 0.00 | 0.00 | 0.00 | 55 | 1009.4 |
| 20260507043022 | 57 | 247 | 1.7 | 5.2 | 0.00 | 0.00 | 0.00 | 54 | 1009.3 |
| 20260507042507 | 57 | 274 | 1.7 | 6.1 | 0.00 | 0.00 | 0.00 | 53 | 1009.3 |
| 20260507042007 | 57 | 257 | 2.6 | 7.0 | 0.00 | 0.00 | 0.00 | 53 | 1009.3 |
| 20260507041521 | 57 | 261 | 4.3 | 7.0 | 0.00 | 0.00 | 0.00 | 53 | 1009.3 |
| 20260507041010 | 57 | 257 | 1.7 | 3.5 | 0.00 | 0.00 | 0.00 | 53 | 1009.1 |
| 20260507040504 | 57 | 290 | 0.9 | 3.5 | 0.00 | 0.00 | 0.00 | 53 | 1009.0 |
| 20260507040007 | 57 | 271 | 0.9 | 6.1 | 0.00 | 0.00 | 0.00 | 53 | 1009.0 |
| 20260507035503 | 57 | 286 | 2.6 | 7.0 | 0.00 | 0.00 | 0.00 | 53 | 1009.1 |
| 20260507035004 | 57 | 275 | 3.5 | 7.0 | 0.00 | 0.00 | 0.00 | 53 | 1009.2 |
| 20260507034513 | 57 | 266 | 4.3 | 7.0 | 0.00 | 0.00 | 0.00 | 53 | 1009.2 |
| 20260507034004 | 58 | 251 | 3.5 | 7.8 | 0.00 | 0.00 | 0.00 | 52 | 1009.1 |
| 20260507033507 | 58 | 233 | 4.3 | 11.3 | 0.00 | 0.00 | 0.00 | 51 | 1009.0 |
| 20260507033017 | 58 | 275 | 4.3 | 11.3 | 0.00 | 0.00 | 0.00 | 50 | 1008.9 |
| 20260507032506 | 59 | 263 | 3.5 | 12.2 | 0.00 | 0.00 | 0.00 | 48 | 1008.9 |
| 20260507032008 | 59 | 284 | 4.3 | 12.2 | 0.00 | 0.00 | 0.00 | 46 | 1009.0 |
| 20260507031522 | 60 | 285 | 7.0 | 12.2 | 0.00 | 0.00 | 0.00 | 45 | 1008.8 |
| 20260507031009 | 60 | 304 | 0.9 | 2.6 | 0.00 | 0.00 | 0.00 | 42 | 1008.6 |
| 20260507030509 | 60 | 322 | 0.9 | 5.2 | 0.00 | 0.00 | 0.00 | 42 | 1008.5 |
| 20260507030024 | 61 | 318 | 0.9 | 6.1 | 0.00 | 0.00 | 0.00 | 42 | 1008.3 |
| 20260507025509 | 61 | 316 | 0.9 | 6.1 | 0.00 | 0.00 | 0.00 | 42 | 1008.1 |
| 20260507025007 | 61 | 328 | 0.9 | 5.2 | 0.00 | 0.00 | 0.00 | 41 | 1007.9 |
| 20260507024510 | 61 | 56 | 1.7 | 5.2 | 0.00 | 0.00 | 0.00 | 40 | 1007.8 |
| 20260507024008 | 61 | 32 | 1.7 | 4.3 | 0.00 | 0.00 | 0.00 | 42 | 1007.8 |
| 20260507023504 | 61 | 66 | 0.9 | 12.2 | 0.00 | 0.00 | 0.00 | 41 | 1007.7 |
| 20260507023011 | 61 | 192 | 2.6 | 12.2 | 0.00 | 0.00 | 0.00 | 41 | 1007.8 |
| 20260507022505 | 62 | 214 | 2.6 | 7.0 | 0.00 | 0.00 | 0.00 | 40 | 1008.1 |
| 20260507022010 | 62 | 311 | 0.0 | 3.5 | 0.00 | 0.00 | 0.00 | 39 | 1007.9 |
| 20260507021517 | 62 | 264 | 0.9 | 4.3 | 0.00 | 0.00 | 0.00 | 38 | 1007.7 |
| 20260507021007 | 62 | 238 | 1.7 | 4.3 | 0.00 | 0.00 | 0.00 | 37 | 1007.4 |
| 20260507020509 | 63 | 280 | 1.7 | 12.2 | 0.00 | 0.00 | 0.00 | 37 | 1007.4 |
| 20260507020004 | 63 | 320 | 1.7 | 12.2 | 0.00 | 0.00 | 0.00 | 39 | 1007.5 |
| 20260507015503 | 63 | 274 | 1.7 | 12.2 | 0.00 | 0.00 | 0.00 | 39 | 1007.5 |
| 20260507015007 | 64 | 61 | 2.6 | 12.2 | 0.00 | 0.00 | 0.00 | 34 | 1007.5 |
| 20260507014507 | 64 | 297 | 0.9 | 3.5 | 0.00 | 0.00 | 0.00 | 32 | 1007.7 |
| 20260507014003 | 64 | 55 | 0.9 | 2.6 | 0.00 | 0.00 | 0.00 | 32 | 1007.5 |
| 20260507013504 | 64 | 65 | 0.0 | 2.6 | 0.00 | 0.00 | 0.00 | 31 | 1007.3 |
| 20260507013013 | 64 | 69 | 0.9 | 3.5 | 0.00 | 0.00 | 0.00 | 32 | 1007.3 |
| 20260507012502 | 64 | 114 | 0.9 | 3.5 | 0.00 | 0.00 | 0.00 | 32 | 1007.3 |
| 20260507012009 | 64 | 27 | 0.9 | 5.2 | 0.00 | 0.00 | 0.00 | 33 | 1007.3 |
| 20260507011518 | 64 | 8 | 0.9 | 6.1 | 0.00 | 0.00 | 0.00 | 34 | 1007.4 |
| 20260507011007 | 65 | 321 | 1.7 | 10.4 | 0.00 | 0.00 | 0.00 | 32 | 1007.5 |
| 20260507010504 | 65 | 280 | 4.3 | 10.4 | 0.00 | 0.00 | 0.00 | 31 | 1007.5 |
| 20260507010004 | 65 | 239 | 0.9 | 2.6 | 0.00 | 0.00 | 0.00 | 30 | 1007.5 |
| 20260507005503 | 65 | 266 | 0.0 | 0.9 | 0.00 | 0.00 | 0.00 | 29 | 1007.4 |
| 20260507005003 | 65 | 267 | 0.0 | 1.7 | 0.00 | 0.00 | 0.00 | 30 | 1007.3 |
| 20260507004505 | 65 | 252 | 0.9 | 1.7 | 0.00 | 0.00 | 0.00 | 29 | 1007.1 |
| 20260507004003 | 66 | 238 | 0.9 | 1.7 | 0.00 | 0.00 | 0.00 | 29 | 1007.0 |
| 20260507003503 | 66 | 164 | 0.0 | 4.3 | 0.00 | 0.00 | 0.00 | 29 | 1007.0 |
| 20260507003006 | 66 | 191 | 0.9 | 4.3 | 0.00 | 0.00 | 0.00 | 28 | 1006.9 |
| 20260507002504 | 66 | 133 | 0.9 | 14.8 | 0.00 | 0.00 | 0.00 | 29 | 1006.9 |
| 20260507002006 | 66 | 110 | 7.0 | 14.8 | 0.00 | 0.00 | 0.00 | 31 | 1006.9 |
| 20260507001515 | 66 | 68 | 1.7 | 3.5 | 0.00 | 0.00 | 0.00 | 28 | 1007.0 |
| 20260507001004 | 66 | 63 | 0.9 | 2.6 | 0.00 | 0.00 | 0.00 | 27 | 1007.2 |
| 20260507000505 | 66 | 300 | 0.9 | 2.6 | 0.00 | 0.00 | 0.00 | 27 | 1007.1 |
| 20260507000022 | 66 | 311 | 0.0 | 1.7 | 0.00 | 0.00 | 0.00 | 27 | 1007.1 |
| 20260506235509 | 66 | 267 | 0.9 | 3.5 | 0.00 | 0.00 | 0.00 | 26 | 1007.1 |
| 20260506235003 | 66 | 326 | 0.9 | 3.5 | 0.00 | 0.00 | 0.00 | 27 | 1007.1 |
| 20260506234505 | 67 | 347 | 0.0 | 2.6 | 0.00 | 0.00 | 0.00 | 26 | 1007.0 |
| 20260506234002 | 67 | 56 | 1.7 | 2.6 | 0.00 | 0.00 | 0.00 | 26 | 1006.8 |
| 20260506233504 | 67 | 37 | 0.9 | 3.5 | 0.00 | 0.00 | 0.00 | 26 | 1006.8 |
| 20260506233007 | 67 | 356 | 0.9 | 4.3 | 0.00 | 0.00 | 0.00 | 26 | 1006.8 |
| 20260506232504 | 67 | 84 | 0.9 | 4.3 | 0.00 | 0.00 | 0.00 | 25 | 1006.6 |
| 20260506232003 | 67 | 94 | 0.0 | 5.2 | 0.00 | 0.00 | 0.00 | 27 | 1006.6 |
| 20260506231513 | 67 | 60 | 0.9 | 5.2 | 0.00 | 0.00 | 0.00 | 25 | 1006.6 |
| 20260506231004 | 68 | 16 | 0.9 | 4.3 | 0.00 | 0.00 | 0.00 | 27 | 1006.5 |
| 20260506230504 | 67 | 46 | 2.6 | 7.0 | 0.00 | 0.00 | 0.00 | 26 | 1006.6 |
| 20260506230014 | 67 | 36 | 2.6 | 7.0 | 0.00 | 0.00 | 0.00 | 26 | 1006.5 |
| 20260506225504 | 67 | 23 | 3.5 | 7.0 | 0.00 | 0.00 | 0.00 | 26 | 1006.6 |
| 20260506225008 | 67 | 38 | 0.9 | 5.2 | 0.00 | 0.00 | 0.00 | 26 | 1006.8 |
| 20260506224519 | 67 | 333 | 2.6 | 5.2 | 0.00 | 0.00 | 0.00 | 26 | 1006.9 |
| 20260506224008 | 67 | 359 | 0.9 | 6.1 | 0.00 | 0.00 | 0.00 | 26 | 1006.8 |
| 20260506223508 | 67 | 27 | 1.7 | 6.1 | 0.00 | 0.00 | 0.00 | 26 | 1006.8 |
| 20260506223002 | 67 | 44 | 1.7 | 6.1 | 0.00 | 0.00 | 0.00 | 26 | 1006.9 |
| 20260506222504 | 68 | 13 | 1.7 | 6.1 | 0.00 | 0.00 | 0.00 | 26 | 1007.0 |
| 20260506222004 | 68 | 88 | 0.9 | 5.2 | 0.00 | 0.00 | 0.00 | 27 | 1006.9 |
| 20260506221508 | 68 | 322 | 2.6 | 5.2 | 0.00 | 0.00 | 0.00 | 26 | 1007.0 |
| 20260506221003 | 67 | 46 | 0.9 | 5.2 | 0.00 | 0.00 | 0.00 | 26 | 1007.0 |
| 20260506220504 | 68 | 108 | 0.9 | 4.3 | 0.00 | 0.00 | 0.00 | 26 | 1007.0 |
| 20260506220014 | 68 | 252 | 0.9 | 3.5 | 0.00 | 0.00 | 0.00 | 27 | 1007.1 |
| 20260506215503 | 67 | 216 | 0.9 | 5.2 | 0.00 | 0.00 | 0.00 | 27 | 1007.1 |
| 20260506215005 | 67 | 303 | 0.9 | 6.1 | 0.00 | 0.00 | 0.00 | 26 | 1007.1 |
| 20260506214517 | 67 | 47 | 3.5 | 6.1 | 0.00 | 0.00 | 0.00 | 26 | 1007.1 |
| 20260506214005 | 67 | 32 | 1.7 | 4.3 | 0.00 | 0.00 | 0.00 | 26 | 1007.1 |
| 20260506213509 | 67 | 342 | 0.9 | 3.5 | 0.00 | 0.00 | 0.00 | 27 | 1007.3 |
| 20260506213022 | 67 | 18 | 1.7 | 4.3 | 0.00 | 0.00 | 0.00 | 26 | 1007.4 |
| 20260506212506 | 67 | 11 | 1.7 | 5.2 | 0.00 | 0.00 | 0.00 | 27 | 1007.5 |
| 20260506212010 | 67 | 306 | 1.7 | 7.0 | 0.00 | 0.00 | 0.00 | 26 | 1007.5 |
| 20260506211538 | 67 | 313 | 2.6 | 7.0 | 0.00 | 0.00 | 0.00 | 26 | 1007.5 |
| 20260506211004 | 67 | 23 | 1.7 | 5.2 | 0.00 | 0.00 | 0.00 | 27 | 1007.7 |
| 20260506210504 | 67 | 51 | 1.7 | 4.3 | 0.00 | 0.00 | 0.00 | 26 | 1007.8 |
| 20260506210010 | 67 | 22 | 0.9 | 4.3 | 0.00 | 0.00 | 0.00 | 27 | 1007.8 |
| 20260506205504 | 66 | 354 | 0.9 | 6.1 | 0.00 | 0.00 | 0.00 | 27 | 1007.8 |
| 20260506205005 | 67 | 62 | 2.6 | 6.1 | 0.00 | 0.00 | 0.00 | 26 | 1007.9 |
| 20260506204516 | 66 | 30 | 3.5 | 6.1 | 0.00 | 0.00 | 0.00 | 26 | 1007.9 |
| 20260506204004 | 66 | 30 | 3.5 | 5.2 | 0.00 | 0.00 | 0.00 | 27 | 1007.9 |
| 20260506203507 | 66 | 105 | 3.5 | 5.2 | 0.00 | 0.00 | 0.00 | 27 | 1007.9 |
| 20260506203019 | 65 | 101 | 2.6 | 5.2 | 0.00 | 0.00 | 0.00 | 27 | 1007.8 |
| 20260506202507 | 65 | 82 | 0.9 | 5.2 | 0.00 | 0.00 | 0.00 | 27 | 1007.9 |
| 20260506202009 | 65 | 50 | 3.5 | 5.2 | 0.00 | 0.00 | 0.00 | 27 | 1008.0 |
| 20260506201534 | 66 | 296 | 0.9 | 4.3 | 0.00 | 0.00 | 0.00 | 27 | 1007.9 |
| 20260506201009 | 66 | 168 | 0.9 | 5.2 | 0.00 | 0.00 | 0.00 | 28 | 1007.9 |
| 20260506200508 | 66 | 233 | 3.5 | 6.1 | 0.00 | 0.00 | 0.00 | 26 | 1008.0 |
| 20260506200031 | 65 | 125 | 1.7 | 6.1 | 0.00 | 0.00 | 0.00 | 28 | 1008.0 |
| 20260506195511 | 65 | 108 | 1.7 | 9.6 | 0.00 | 0.00 | 0.00 | 28 | 1008.0 |
| 20260506195004 | 65 | 76 | 3.5 | 9.6 | 0.00 | 0.00 | 0.00 | 27 | 1008.0 |
| 20260506194509 | 66 | 103 | 3.5 | 7.0 | 0.00 | 0.00 | 0.00 | 27 | 1008.1 |
| 20260506194008 | 65 | 125 | 2.6 | 7.0 | 0.00 | 0.00 | 0.00 | 28 | 1008.1 |
| 20260506193503 | 65 | 84 | 2.6 | 7.0 | 0.00 | 0.00 | 0.00 | 28 | 1008.2 |
| 20260506193027 | 65 | 99 | 1.7 | 7.0 | 0.00 | 0.00 | 0.00 | 28 | 1008.1 |
| 20260506192507 | 64 | 132 | 3.5 | 9.6 | 0.00 | 0.00 | 0.00 | 27 | 1008.2 |
| 20260506192008 | 64 | 191 | 1.7 | 9.6 | 0.00 | 0.00 | 0.00 | 29 | 1008.2 |
| 20260506191519 | 64 | 124 | 3.5 | 9.6 | 0.00 | 0.00 | 0.00 | 29 | 1008.3 |
| 20260506191009 | 64 | 143 | 2.6 | 8.7 | 0.00 | 0.00 | 0.00 | 29 | 1008.5 |
| 20260506190508 | 63 | 207 | 1.7 | 8.7 | 0.00 | 0.00 | 0.00 | 29 | 1008.5 |
| 20260506190026 | 63 | 115 | 1.7 | 9.6 | 0.00 | 0.00 | 0.00 | 29 | 1008.6 |
| 20260506185508 | 62 | 116 | 0.9 | 9.6 | 0.00 | 0.00 | 0.00 | 29 | 1008.6 |
| 20260506185011 | 62 | 111 | 4.3 | 8.7 | 0.00 | 0.00 | 0.00 | 29 | 1008.7 |
| 20260506184531 | 62 | 122 | 3.5 | 8.7 | 0.00 | 0.00 | 0.00 | 29 | 1008.8 |
| 20260506184010 | 62 | 103 | 3.5 | 7.0 | 0.00 | 0.00 | 0.00 | 29 | 1008.9 |
| 20260506183510 | 62 | 180 | 3.5 | 7.0 | 0.00 | 0.00 | 0.00 | 30 | 1009.0 |
| 20260506183010 | 61 | 72 | 2.6 | 10.4 | 0.00 | 0.00 | 0.00 | 30 | 1009.0 |
| 20260506182506 | 61 | 115 | 5.2 | 10.4 | 0.00 | 0.00 | 0.00 | 30 | 1009.1 |
| 20260506182011 | 61 | 134 | 1.7 | 9.6 | 0.00 | 0.00 | 0.00 | 32 | 1009.1 |
| 20260506181534 | 60 | 170 | 4.3 | 9.6 | 0.00 | 0.00 | 0.00 | 31 | 1009.2 |
| 20260506181007 | 59 | 120 | 2.6 | 11.3 | 0.00 | 0.00 | 0.00 | 32 | 1009.2 |
| 20260506180508 | 59 | 135 | 4.3 | 11.3 | 0.00 | 0.00 | 0.00 | 33 | 1009.4 |
| 20260506180025 | 59 | 219 | 4.3 | 11.3 | 0.00 | 0.00 | 0.00 | 33 | 1009.4 |
| 20260506175514 | 58 | 188 | 3.5 | 11.3 | 0.00 | 0.00 | 0.00 | 33 | 1009.5 |
| 20260506175008 | 58 | 39 | 4.3 | 9.6 | 0.00 | 0.00 | 0.00 | 34 | 1009.6 |
| 20260506174524 | 57 | 134 | 4.3 | 9.6 | 0.00 | 0.00 | 0.00 | 33 | 1009.7 |
| 20260506174014 | 57 | 101 | 4.3 | 9.6 | 0.00 | 0.00 | 0.00 | 34 | 1009.7 |
| 20260506173512 | 57 | 141 | 3.5 | 7.8 | 0.00 | 0.00 | 0.00 | 34 | 1009.8 |
| 20260506173047 | 57 | 212 | 3.5 | 7.8 | 0.00 | 0.00 | 0.00 | 34 | 1009.8 |
| 20260506172507 | 56 | 118 | 2.6 | 7.8 | 0.00 | 0.00 | 0.00 | 36 | 1009.9 |
| 20260506172010 | 56 | 91 | 4.3 | 7.8 | 0.00 | 0.00 | 0.00 | 34 | 1010.0 |
| 20260506171538 | 56 | 156 | 3.5 | 9.6 | 0.00 | 0.00 | 0.00 | 36 | 1010.0 |
| 20260506171007 | 55 | 145 | 4.3 | 9.6 | 0.00 | 0.00 | 0.00 | 36 | 1010.1 |
| 20260506170508 | 55 | 145 | 5.2 | 9.6 | 0.00 | 0.00 | 0.00 | 37 | 1010.3 |
| 20260506170008 | 54 | 157 | 3.5 | 7.8 | 0.00 | 0.00 | 0.00 | 37 | 1010.4 |
| 20260506165506 | 53 | 143 | 3.5 | 7.0 | 0.00 | 0.00 | 0.00 | 37 | 1010.5 |
| 20260506165003 | 53 | 126 | 1.7 | 9.6 | 0.00 | 0.00 | 0.00 | 39 | 1010.5 |
| 20260506164507 | 52 | 134 | 4.3 | 9.6 | 0.00 | 0.00 | 0.00 | 39 | 1010.6 |
| 20260506164002 | 52 | 123 | 3.5 | 7.8 | 0.00 | 0.00 | 0.00 | 38 | 1010.6 |
| 20260506163504 | 51 | 134 | 2.6 | 8.7 | 0.00 | 0.00 | 0.00 | 40 | 1010.6 |
| 20260506163015 | 50 | 68 | 3.5 | 8.7 | 0.00 | 0.00 | 0.00 | 41 | 1010.7 |
| 20260506162503 | 50 | 99 | 3.5 | 7.8 | 0.00 | 0.00 | 0.00 | 40 | 1010.7 |
| 20260506162006 | 50 | 98 | 2.6 | 7.0 | 0.00 | 0.00 | 0.00 | 41 | 1010.8 |
| 20260506161510 | 49 | 313 | 2.6 | 7.0 | 0.00 | 0.00 | 0.00 | 42 | 1010.8 |
| 20260506161006 | 49 | 115 | 1.7 | 6.1 | 0.00 | 0.00 | 0.00 | 42 | 1010.8 |
| 20260506160503 | 48 | 163 | 1.7 | 6.1 | 0.00 | 0.00 | 0.00 | 43 | 1010.9 |
| 20260506160010 | 48 | 77 | 2.6 | 6.1 | 0.00 | 0.00 | 0.00 | 42 | 1010.9 |
| 20260506155504 | 48 | 117 | 3.5 | 6.1 | 0.00 | 0.00 | 0.00 | 42 | 1011.0 |
| 20260506155003 | 47 | 153 | 2.6 | 7.0 | 0.00 | 0.00 | 0.00 | 44 | 1011.0 |
| 20260506154508 | 47 | 156 | 3.5 | 7.0 | 0.00 | 0.00 | 0.00 | 43 | 1011.1 |
| 20260506154003 | 46 | 113 | 3.5 | 7.0 | 0.00 | 0.00 | 0.00 | 44 | 1011.2 |
| 20260506153504 | 46 | 200 | 2.6 | 7.0 | 0.00 | 0.00 | 0.00 | 45 | 1011.3 |
| 20260506153004 | 45 | 138 | 3.5 | 7.0 | 0.00 | 0.00 | 0.00 | 44 | 1011.4 |
| 20260506152506 | 45 | 139 | 4.3 | 7.0 | 0.00 | 0.00 | 0.00 | 44 | 1011.4 |
| 20260506152003 | 44 | 127 | 2.6 | 7.0 | 0.00 | 0.00 | 0.00 | 46 | 1011.4 |
| 20260506151509 | 44 | 123 | 2.6 | 7.0 | 0.00 | 0.00 | 0.00 | 46 | 1011.5 |
| 20260506151003 | 43 | 111 | 4.3 | 7.0 | 0.00 | 0.00 | 0.00 | 46 | 1011.4 |
| 20260506150503 | 43 | 101 | 3.5 | 8.7 | 0.00 | 0.00 | 0.00 | 47 | 1011.4 |
| 20260506150016 | 42 | 139 | 4.3 | 8.7 | 0.00 | 0.00 | 0.00 | 47 | 1011.5 |
| 20260506145503 | 42 | 136 | 4.3 | 7.0 | 0.00 | 0.00 | 0.00 | 46 | 1011.5 |
| 20260506145008 | 42 | 165 | 3.5 | 7.0 | 0.00 | 0.00 | 0.00 | 46 | 1011.6 |
| 20260506144516 | 42 | 41 | 2.6 | 7.0 | 0.00 | 0.00 | 0.00 | 48 | 1011.7 |
| 20260506144004 | 41 | 118 | 2.6 | 8.7 | 0.00 | 0.00 | 0.00 | 48 | 1011.7 |
| 20260506143504 | 41 | 120 | 4.3 | 8.7 | 0.00 | 0.00 | 0.00 | 47 | 1011.8 |
| 20260506143022 | 41 | 132 | 3.5 | 8.7 | 0.00 | 0.00 | 0.00 | 48 | 1011.8 |
| 20260506142507 | 41 | 145 | 4.3 | 7.0 | 0.00 | 0.00 | 0.00 | 48 | 1011.9 |
| 20260506142003 | 40 | 140 | 2.6 | 7.0 | 0.00 | 0.00 | 0.00 | 49 | 1011.9 |
| 20260506141504 | 40 | 156 | 2.6 | 7.0 | 0.00 | 0.00 | 0.00 | 49 | 1012.0 |
| 20260506141003 | 39 | 130 | 2.6 | 7.0 | 0.00 | 0.00 | 0.00 | 50 | 1012.0 |
| 20260506140503 | 38 | 99 | 2.6 | 6.1 | 0.00 | 0.00 | 0.00 | 51 | 1012.1 |
| 20260506140018 | 38 | 143 | 1.7 | 6.1 | 0.00 | 0.00 | 0.00 | 51 | 1012.2 |
| 20260506135502 | 38 | 124 | 2.6 | 7.8 | 0.00 | 0.00 | 0.00 | 51 | 1012.2 |
| 20260506135006 | 37 | 142 | 2.6 | 9.6 | 0.00 | 0.00 | 0.00 | 52 | 1012.2 |
| 20260506134517 | 37 | 162 | 2.6 | 9.6 | 0.00 | 0.00 | 0.00 | 52 | 1012.3 |
| 20260506134004 | 37 | 184 | 4.3 | 8.7 | 0.00 | 0.00 | 0.00 | 52 | 1012.3 |
| 20260506133506 | 37 | 143 | 3.5 | 6.1 | 0.00 | 0.00 | 0.00 | 52 | 1012.4 |
| 20260506133020 | 37 | 115 | 3.5 | 7.8 | 0.00 | 0.00 | 0.00 | 52 | 1012.4 |
| 20260506132503 | 36 | 210 | 4.3 | 7.8 | 0.00 | 0.00 | 0.00 | 53 | 1012.5 |
| 20260506132009 | 36 | 115 | 3.5 | 7.0 | 0.00 | 0.00 | 0.00 | 53 | 1012.4 |
| 20260506131520 | 36 | 131 | 1.7 | 6.1 | 0.00 | 0.00 | 0.00 | 53 | 1012.4 |
| 20260506131009 | 36 | 148 | 1.7 | 7.0 | 0.00 | 0.00 | 0.00 | 53 | 1012.4 |
| 20260506130509 | 35 | 158 | 3.5 | 7.0 | 0.00 | 0.00 | 0.00 | 53 | 1012.5 |
| 20260506130019 | 35 | 131 | 2.6 | 6.1 | 0.00 | 0.00 | 0.00 | 54 | 1012.6 |
| 20260506125507 | 35 | 127 | 1.7 | 6.1 | 0.00 | 0.00 | 0.00 | 54 | 1012.6 |
| 20260506125006 | 35 | 161 | 1.7 | 5.2 | 0.00 | 0.00 | 0.00 | 55 | 1012.8 |
| 20260506124510 | 34 | 112 | 1.7 | 4.3 | 0.00 | 0.00 | 0.00 | 55 | 1012.9 |
| 20260506124003 | 34 | 77 | 1.7 | 4.3 | 0.00 | 0.00 | 0.00 | 56 | 1012.9 |
| 20260506123508 | 33 | 118 | 2.6 | 4.3 | 0.00 | 0.00 | 0.00 | 57 | 1012.9 |
| 20260506123017 | 33 | 145 | 1.7 | 5.2 | 0.00 | 0.00 | 0.00 | 58 | 1012.8 |